Tracking 17138 objects as of 2-July-2015
HD Live streaming from Space Station

SKYNET 5B

Track SKYNET 5B now!
SKYNET 5B is classified as:


NORAD ID: 32294
Int'l Code: 2007-056B
Perigee: 35,776.7 km
Apogee: 35,809.6 km
Inclination: 0.1 °
Period: 1,436.1 minutes
Semi major axis: 42164 km
RCS: 14.1589 m2 (large)
Launch date: November 14, 2007
Source: United Kingdom (UK)

Star One C1 is a C-, Ku-, and X-band telecommunications, multimedia and broadband internet satellite that will serve South America
Your satellite tracking list
Your tracking list is empty





NASA's NSSDC Master Catalog

Two Line Element Set (TLE):
1 32294U 07056B   15181.08480138  .00000142  00000-0  00000+0 0  9992
2 32294 000.0644 006.9222 0003907 083.6787 242.1067 01.00273963 28053

Source of the keplerian elements: AFSPC

N2YO: 236